Content
SEND FEEDBACK

Daily
Averages
Monthly
Summary
United States of America

BUNCOM, OREGON


Home > North America > United States > Oregon
Elevation: 1930 feet     Latitude: 42 09N     Longitude: 122 58W

WEATHER
 
SELECT A DAY
Number of Records: 198,558;   Date Range: 1/1/95 - 8/30/14
 
SHARE

PRINT THIS DATA

[ ← Previous Day ]
WEATHER ALMANAC - FEBRUARY 13, 2013
[ Next Day → ]
[ °C ]   °F
Weather ElementAverageHighLow
Temperature44.7 °F57.9 °F (2:53 pm)34 °F (1:53 am)
Dewpoint35.6 °F41 °F (6:53 pm)30.9 °F (1:53 am)
Humidity72.6 %92 % (3:53 am)47 % (2:53 pm)
Barometer30.47 in30.52 in (9:53 am)30.40 in (4:53 pm)
Wind Speed2 mph6.9 mph (7:53 pm)
Weather ElementAverage
Visibility9.9 mi
Wind DirectionESE (98.7 °)

Weather ElementTotal
Precipitation---
Heating Degree Days19.1 (Base 65)
Averaged from 23 records on February 13, 2013
WEATHER CONDITIONS BREAKOUT
WIND DIRECTION BREAKOUT
WEATHER BY HOUR - FEBRUARY 13, 2013
[ °C ]   °F
Local TimeTemperatureDewpointHumidityBarometerVisibilityWind DirectionWind SpeedGust SpeedPrecipitationEventsConditions
1:53 AM34.0 °F30.9 °F89 %30.50 in10.0 miEast (100°)3.5 mphScattered Clouds
2:53 AM34.0 °F30.9 °F89 %30.50 in10.0 miNNE (20°)5.8 mphClear
3:53 AM34.0 °F32.0 °F92 %30.50 in10.0 miCalmClear
4:53 AM36.0 °F33.1 °F89 %30.49 in10.0 miCalmPartly Cloudy
5:53 AM34.0 °F32.0 °F92 %30.49 in9.0 miCalmPartly Cloudy
6:53 AM35.1 °F32.0 °F89 %30.49 in10.0 miCalmClear
7:53 AM35.1 °F32.0 °F89 %30.51 in9.0 miCalmScattered Clouds
8:53 AM37.9 °F34.0 °F86 %30.51 in9.0 miCalmClear
9:53 AM42.1 °F35.1 °F76 %30.52 in10.0 miCalmClear
10:53 AM45.0 °F36.0 °F71 %30.52 in10.0 miCalmClear
11:53 AM50.0 °F37.0 °F61 %30.49 in10.0 miCalmClear
12:53 PM53.1 °F37.0 °F55 %30.46 in10.0 miWest (280°)3.5 mphClear
1:53 PM55.9 °F37.0 °F49 %30.44 in10.0 miCalmClear
2:53 PM57.9 °F37.9 °F47 %30.42 in10.0 miCalmClear
3:53 PM57.9 °F39.0 °F49 %30.41 in10.0 miCalmScattered Clouds
4:53 PM57.9 °F37.9 °F47 %30.40 in10.0 miWNW (300°)4.6 mphScattered Clouds
5:53 PM55.0 °F37.9 °F53 %30.40 in10.0 miNW (310°)3.5 mphScattered Clouds
6:53 PM52.0 °F41.0 °F66 %30.43 in10.0 miNorth (350°)5.8 mphScattered Clouds
7:53 PM50.0 °F39.0 °F66 %30.44 in10.0 miNNW (340°)6.9 mphScattered Clouds
8:53 PM46.0 °F37.9 °F73 %30.45 in10.0 miEast (100°)4.6 mphClear
9:53 PM42.1 °F36.0 °F79 %30.47 in10.0 miSE (130°)3.5 mphClear
10:53 PM43.0 °F37.0 °F80 %30.48 in10.0 miCalmClear
11:53 PM39.9 °F35.1 °F83 %30.47 in10.0 miNNW (340°)3.5 mphClear
Hourly data recorded from KMFR, located miles away from Buncom, Oregon







STORIES FROM OUR PARTNERS